Total_Precipitation_Accumulation
1.81 2.28 2.79 3.26 3.97 4.94 5.96 6.42 6.30 5.74 5.25 4.88 4.56 4.29 3.93 3.62 3.49 3.19 2.85 2.82 2.81 2.86 3.16 2.89 3.26 3.26 3.35 3.36 3.32 3.46 3.38 3.12 3.26 3.83 3.85 3.42 3.12 3.11 2.97 2.80 2.89 2.70 2.64
1.88 2.38 2.96 3.34 3.69 4.27 5.11 5.52 5.24 4.68 4.07 3.88 3.79 3.76 3.67 3.24 3.01 2.95 2.94 2.64 2.66 2.75 2.85 3.04 2.89 2.96 3.19 3.08 3.03 3.35 3.33 2.98 3.06 3.65 3.97 3.80 3.79 3.48 2.76 2.73 2.83 2.78 2.81
1.67 2.39 2.96 3.23 3.49 3.78 3.86 4.01 3.95 3.54 3.25 3.18 3.17 3.21 3.39 3.14 2.84 2.75 2.72 2.51 2.42 2.42 2.59 2.69 2.83 2.98 2.86 2.97 3.04 3.12 3.27 3.19 3.02 3.13 3.75 3.76 3.62 3.48 3.13 2.74 2.66 2.83 3.05
1.51 2.25 2.58 2.71 2.77 2.86 2.75 2.84 2.95 2.89 2.89 2.82 2.85 2.73 2.58 2.57 2.45 2.45 2.42 2.41 2.30 2.24 2.19 2.36 2.63 2.79 2.73 2.97 2.70 2.86 3.16 3.27 3.01 3.03 3.12 3.14 3.27 3.46 3.29 2.89 2.55 2.56 2.66
1.22 1.54 1.67 1.83 1.90 1.96 2.00 2.25 2.62 2.80 2.74 2.67 2.79 2.77 2.44 2.31 2.24 2.26 2.41 2.40 2.29 2.19 2.08 2.19 2.43 2.59 2.66 2.77 2.78 3.09 3.03 2.95 2.93 2.95 3.05 3.18 3.15 2.99 3.05 3.07 2.77 2.57 2.37
0.91 1.08 1.20 1.31 1.37 1.42 1.53 1.78 2.22 2.50 2.49 2.48 2.50 2.41 2.35 2.32 2.28 2.25 2.29 2.24 2.19 2.27 2.37 2.35 2.42 2.41 2.47 2.57 2.67 2.90 2.90 2.86 2.92 2.81 2.73 3.00 3.17 3.16 3.21 3.05 2.78 2.61 2.35
0.81 0.94 1.14 1.23 1.17 1.13 1.25 1.43 1.74 1.90 1.91 2.01 2.18 2.26 2.32 2.28 2.14 2.12 2.10 2.04 1.86 1.97 2.26 2.43 2.52 2.54 2.54 2.49 2.60 2.65 2.67 2.75 2.89 2.81 2.68 2.69 2.74 2.96 3.19 3.20 2.80 2.58 2.34
0.70 0.78 0.92 0.96 0.96 1.02 1.09 1.23 1.39 1.48 1.57 1.67 1.87 2.06 2.09 2.07 2.03 2.19 2.08 1.93 1.72 1.67 1.89 2.17 2.29 2.31 2.28 2.29 2.75 2.53 2.48 2.66 2.74 2.66 2.98 2.83 2.61 2.81 3.00 3.15 3.21 3.00 2.83
0.56 0.61 0.72 0.78 0.81 0.98 1.08 1.12 1.22 1.32 1.43 1.51 1.78 1.96 1.97 1.93 1.97 2.06 1.98 1.80 1.81 1.71 1.79 1.85 2.13 2.26 2.25 2.31 2.54 2.47 2.42 2.58 2.57 2.72 2.99 2.94 2.77 2.77 2.80 3.04 3.37 3.59 3.39
0.53 0.59 0.64 0.73 0.73 0.75 0.90 1.01 1.08 1.26 1.44 1.52 1.57 1.61 1.77 1.75 1.74 1.68 1.65 1.74 1.79 1.75 1.82 1.92 1.93 2.04 2.19 2.32 2.47 2.33 2.28 2.44 2.51 2.66 2.80 2.79 2.70 2.75 2.68 2.81 3.12 3.43 3.50
0.62 0.62 0.69 0.71 0.67 0.66 0.79 0.92 1.02 1.15 1.27 1.30 1.35 1.46 1.56 1.56 1.53 1.52 1.49 1.60 1.65 1.70 1.72 1.79 1.88 1.90 2.01 2.29 2.60 2.49 2.48 2.52 2.53 2.52 2.68 2.75 2.91 2.96 2.85 2.86 2.90 3.08 3.28
0.80 0.78 0.82 0.79 0.77 0.76 0.79 0.89 0.89 0.95 1.03 1.11 1.21 1.29 1.42 1.46 1.46 1.48 1.61 1.70 1.69 1.66 1.58 1.67 1.75 1.69 1.82 2.11 2.41 2.54 2.65 2.78 2.73 2.75 2.92 2.92 2.93 2.89 2.81 2.86 2.85 2.88 3.15
0.82 0.98 1.01 0.87 0.82 0.81 0.83 0.84 0.83 0.87 0.93 1.02 1.09 1.18 1.33 1.51 1.60 1.64 1.67 1.77 1.82 1.78 1.78 1.81 1.78 1.89 2.02 2.09 2.23 2.39 2.45 2.57 2.63 2.76 2.83 2.78 2.90 2.80 2.79 2.68 2.67 2.72 2.88
0.83 0.99 1.09 0.88 0.78 0.76 0.78 0.79 0.79 0.79 0.84 1.01 1.16 1.27 1.49 1.69 1.76 1.77 1.80 1.82 1.86 1.85 1.90 1.91 1.93 2.02 2.11 2.06 2.12 2.27 2.37 2.42 2.50 2.62 2.71 2.77 2.79 2.82 2.94 2.80 2.77 2.92 3.05
0.82 0.85 0.96 0.91 0.83 0.80 0.81 0.85 0.91 0.93 0.95 1.17 1.38 1.60 1.79 1.84 1.87 1.92 1.93 1.98 2.01 1.91 2.01 2.07 2.04 2.03 1.94 1.84 2.10 2.24 2.24 2.43 2.47 2.46 2.43 2.52 2.76 2.80 2.83 2.62 2.76 2.98 2.99
0.85 0.97 1.03 1.01 0.99 0.96 1.01 1.09 1.15 1.24 1.37 1.54 1.71 1.80 1.86 1.89 1.84 1.84 1.86 2.02 2.07 2.12 2.24 2.26 2.27 2.19 1.92 2.12 2.16 2.18 2.30 2.42 2.42 2.42 2.35 2.25 2.27 2.35 2.47 2.47 2.50 2.64 2.77
1.02 1.12 1.19 1.17 1.21 1.21 1.31 1.45 1.43 1.50 1.66 1.82 1.98 1.96 1.91 1.94 1.92 1.96 1.99 2.00 2.14 2.28 2.32 2.29 2.31 2.27 2.27 2.26 1.99 1.93 1.93 2.03 2.07 2.06 2.06 1.85 1.75 2.08 2.14 2.31 2.28 2.16 2.20
1.05 1.18 1.26 1.26 1.23 1.30 1.42 1.65 1.75 1.75 1.87 1.97 2.06 2.12 2.15 2.22 2.29 2.40 2.41 2.46 2.52 2.58 2.53 2.45 2.47 2.52 2.46 2.45 2.10 1.98 1.86 1.86 1.84 1.81 1.79 1.83 1.82 1.86 2.04 2.12 2.09 1.99 1.94
1.17 1.32 1.33 1.31 1.33 1.51 1.58 1.65 1.76 1.80 1.95 2.14 2.29 2.37 2.42 2.47 2.51 2.54 2.66 2.82 2.98 3.04 2.96 2.91 2.94 2.91 2.95 2.95 2.55 2.38 2.10 2.00 1.90 1.91 1.97 1.99 1.84 1.90 1.94 1.97 1.93 1.88 1.90
1.30 1.46 1.51 1.47 1.56 1.82 1.88 1.96 2.04 2.10 2.18 2.28 2.44 2.63 2.75 2.80 2.79 2.86 3.04 3.23 3.42 3.46 3.47 3.47 3.47 3.38 3.35 3.32 2.88 2.69 2.41 2.33 2.25 2.27 2.13 2.03 1.83 1.76 1.71 1.72 1.77 1.68 1.66
1.28 1.44 1.51 1.53 1.60 1.82 2.02 2.30 2.42 2.47 2.47 2.51 2.63 2.78 2.89 3.02 3.08 3.19 3.30 3.51 3.67 3.67 3.63 3.58 3.54 3.42 3.33 3.20 2.84 2.66 2.44 2.46 2.46 2.34 2.21 2.06 1.90 1.69 1.64 1.58 1.57 1.60 1.69
1.33 1.41 1.54 1.62 1.72 1.85 2.11 2.37 2.56 2.70 2.77 2.76 2.89 2.95 2.96 2.87 2.87 3.14 3.36 3.61 3.85 3.81 3.73 3.76 3.60 3.43 3.30 3.02 2.79 2.58 2.43 2.51 2.55 2.46 2.33 2.19 2.04 1.78 1.69 1.54 1.52 1.59 1.57
1.31 1.35 1.44 1.57 1.66 1.74 1.95 2.35 2.52 2.62 2.71 2.80 2.84 2.95 2.99 3.01 3.07 3.28 3.46 3.69 3.81 3.74 3.63 3.60 3.51 3.31 3.12 2.98 2.73 2.49 2.40 2.45 2.40 2.48 2.57 2.36 2.18 1.96 1.79 1.76 1.75 1.64 1.52
1.25 1.33 1.43 1.57 1.66 1.57 1.71 1.92 2.15 2.31 2.40 2.46 2.49 2.49 2.60 2.77 3.01 3.32 3.41 3.47 3.51 3.54 3.51 3.39 3.26 3.21 3.19 3.13 2.86 2.54 2.30 2.27 2.30 2.36 2.46 2.34 2.17 1.94 1.79 1.82 1.77 1.64 1.61
1.27 1.33 1.49 1.50 1.54 1.60 1.60 1.65 1.71 1.91 2.09 2.14 2.17 2.26 2.37 2.56 2.78 3.01 3.16 3.11 3.14 3.34 3.24 3.01 2.83 2.73 2.66 2.75 2.65 2.36 2.20 2.16 2.25 2.32 2.38 2.32 2.20 2.04 1.90 1.83 1.84 1.85 1.81
1.33 1.33 1.38 1.36 1.35 1.48 1.56 1.58 1.69 1.86 1.93 1.88 1.91 1.95 2.01 2.19 2.37 2.52 2.65 2.67 2.44 2.50 2.42 2.28 2.15 2.03 1.99 2.00 1.87 1.72 1.67 1.76 1.95 2.04 2.20 2.24 2.16 2.06 1.99 1.95 1.94 1.92 1.84